Time,TemperatureF,DewpointF,PressureIn,WindDirection,WindDirectionDegrees,WindSpeedMPH,WindSpeedGustMPH,Humidity,HourlyPrecipIn,Conditions,Clouds,dailyrainin,SoftwareType,DateUTC
2013-04-10 00:02:00,41.7,33.6,29.78,SSE,158,0.0,0.9,73,0.00,,,0.00,meteobridge,2013-04-10 06:02:00,
2013-04-10 00:07:00,41.9,33.6,29.78,SSW,192,0.0,2.9,72,0.00,,,0.00,meteobridge,2013-04-10 06:07:00,
2013-04-10 00:12:00,42.1,33.8,29.78,SW,226,2.9,2.9,72,0.00,,,0.00,meteobridge,2013-04-10 06:12:00,
2013-04-10 00:17:00,42.1,33.4,29.79,South,175,0.0,2.0,71,0.00,,,0.00,meteobridge,2013-04-10 06:17:00,
2013-04-10 00:23:00,42.1,33.8,29.79,South,182,0.9,4.0,72,0.00,,,0.00,meteobridge,2013-04-10 06:23:00,
2013-04-10 00:28:00,41.9,33.6,29.79,South,182,0.0,0.9,72,0.00,,,0.00,meteobridge,2013-04-10 06:28:00,
2013-04-10 00:33:00,41.9,33.6,29.79,South,182,0.0,0.0,72,0.00,,,0.00,meteobridge,2013-04-10 06:33:00,
2013-04-10 00:38:00,41.7,33.4,29.79,South,182,0.0,0.0,72,0.00,,,0.00,meteobridge,2013-04-10 06:38:00,
2013-04-10 00:43:00,41.5,33.6,29.79,South,190,0.9,2.0,73,0.00,,,0.00,meteobridge,2013-04-10 06:43:00,
2013-04-10 00:48:00,41.7,33.4,29.79,SSW,193,0.9,2.0,72,0.00,,,0.00,meteobridge,2013-04-10 06:48:00,
2013-04-10 00:53:00,41.5,33.6,29.80,South,180,0.0,2.0,73,0.00,,,0.00,meteobridge,2013-04-10 06:53:00,
2013-04-10 00:58:00,41.5,33.6,29.80,South,180,0.0,0.0,73,0.00,,,0.00,meteobridge,2013-04-10 06:58:00,
2013-04-10 01:04:00,41.4,33.6,29.80,South,180,0.0,0.9,74,0.00,,,0.00,meteobridge,2013-04-10 07:04:00,
2013-04-10 01:09:00,41.2,33.4,29.80,South,180,0.0,0.0,74,0.00,,,0.00,meteobridge,2013-04-10 07:09:00,
2013-04-10 01:15:00,40.8,33.4,29.80,South,180,0.0,0.0,75,0.00,,,0.00,meteobridge,2013-04-10 07:15:00,
2013-04-10 01:20:00,40.6,33.3,29.80,SSW,198,0.9,2.0,75,0.00,,,0.00,meteobridge,2013-04-10 07:20:00,
2013-04-10 01:25:00,40.5,33.4,29.80,SSW,207,0.0,2.0,76,0.00,,,0.00,meteobridge,2013-04-10 07:25:00,
2013-04-10 01:30:00,40.5,33.4,29.80,SSW,207,0.0,0.9,76,0.00,,,0.00,meteobridge,2013-04-10 07:30:00,
2013-04-10 01:35:00,40.3,33.3,29.80,SSW,206,0.0,0.9,76,0.00,,,0.00,meteobridge,2013-04-10 07:35:00,
2013-04-10 01:40:00,40.3,33.6,29.80,SSW,207,0.0,0.0,77,0.00,,,0.00,meteobridge,2013-04-10 07:40:00,
2013-04-10 01:46:00,39.9,33.3,29.80,SSW,207,0.0,0.0,77,0.00,,,0.00,meteobridge,2013-04-10 07:46:00,
2013-04-10 01:51:00,39.7,33.4,29.80,SSW,207,0.0,0.0,78,0.00,,,0.00,meteobridge,2013-04-10 07:51:00,
2013-04-10 01:56:00,39.7,33.4,29.80,SSW,207,0.0,0.0,78,0.00,,,0.00,meteobridge,2013-04-10 07:56:00,
2013-04-10 02:01:00,39.7,33.8,29.80,SSW,207,0.0,0.0,79,0.00,,,0.00,meteobridge,2013-04-10 08:01:00,
2013-04-10 02:06:00,39.6,34.0,29.80,SSW,206,0.0,0.0,80,0.00,,,0.00,meteobridge,2013-04-10 08:06:00,
2013-04-10 02:11:00,39.4,34.7,29.80,SSW,206,0.0,0.0,83,0.00,,,0.00,meteobridge,2013-04-10 08:11:00,
2013-04-10 02:16:00,39.2,34.7,29.80,SSW,206,0.0,0.0,84,0.00,,,0.00,meteobridge,2013-04-10 08:16:00,
2013-04-10 02:21:00,39.2,35.1,29.80,SSW,207,0.0,0.0,85,0.00,,,0.00,meteobridge,2013-04-10 08:21:00,
2013-04-10 02:26:00,39.2,35.1,29.80,SSW,206,0.0,0.0,85,0.00,,,0.00,meteobridge,2013-04-10 08:26:00,
2013-04-10 02:32:00,39.4,35.2,29.81,SSW,206,0.0,0.0,85,0.00,,,0.00,meteobridge,2013-04-10 08:32:00,
2013-04-10 02:37:00,39.4,35.2,29.81,WNW,294,0.0,2.0,85,0.00,,,0.00,meteobridge,2013-04-10 08:37:00,
2013-04-10 02:42:00,39.4,35.2,29.80,NW,316,0.9,2.0,85,0.00,,,0.00,meteobridge,2013-04-10 08:42:00,
2013-04-10 02:47:00,39.4,35.2,29.80,NNW,341,0.0,2.9,85,0.00,,,0.00,meteobridge,2013-04-10 08:47:00,
2013-04-10 02:52:00,39.4,35.2,29.80,NNW,342,0.0,2.0,85,0.00,,,0.00,meteobridge,2013-04-10 08:52:00,
2013-04-10 02:57:00,39.4,35.2,29.81,NNW,342,0.0,0.9,85,0.00,,,0.00,meteobridge,2013-04-10 08:57:00,
2013-04-10 03:02:00,39.4,35.2,29.81,NNW,332,2.0,2.0,85,0.00,,,0.00,meteobridge,2013-04-10 09:02:00,
2013-04-10 03:07:00,39.4,35.6,29.81,NW,325,0.0,2.0,86,0.00,,,0.00,meteobridge,2013-04-10 09:07:00,
2013-04-10 03:12:00,39.4,35.6,29.82,NW,325,0.0,0.9,86,0.00,,,0.00,meteobridge,2013-04-10 09:12:00,
2013-04-10 03:17:00,39.4,35.6,29.82,NW,325,0.0,2.0,86,0.00,,,0.00,meteobridge,2013-04-10 09:17:00,
2013-04-10 03:22:00,39.2,35.4,29.82,NNW,348,6.0,6.9,86,0.00,,,0.00,meteobridge,2013-04-10 09:22:00,
2013-04-10 03:27:00,39.0,34.9,29.82,NNW,332,2.0,6.0,85,0.00,,,0.00,meteobridge,2013-04-10 09:27:00,
2013-04-10 03:33:00,39.2,35.1,29.82,North,5,0.9,2.9,85,0.00,,,0.00,meteobridge,2013-04-10 09:33:00,
2013-04-10 03:38:00,39.4,35.2,29.82,North,5,2.0,2.9,85,0.00,,,0.00,meteobridge,2013-04-10 09:38:00,
2013-04-10 03:43:00,39.6,35.4,29.82,North,355,2.9,4.9,85,0.00,,,0.00,meteobridge,2013-04-10 09:43:00,
2013-04-10 03:48:00,39.7,35.2,29.83,North,9,0.9,4.0,84,0.00,,,0.00,meteobridge,2013-04-10 09:48:00,
2013-04-10 03:53:00,39.7,35.2,29.83,NNW,337,0.9,4.9,84,0.00,,,0.00,meteobridge,2013-04-10 09:53:00,
2013-04-10 03:58:00,39.7,35.1,29.83,NNW,343,0.0,2.9,83,0.00,,,0.00,meteobridge,2013-04-10 09:58:00,
2013-04-10 04:03:00,39.7,35.1,29.83,North,355,0.0,4.9,83,0.00,,,0.00,meteobridge,2013-04-10 10:03:00,
2013-04-10 04:08:00,39.7,35.1,29.83,North,355,0.9,4.0,83,0.00,,,0.00,meteobridge,2013-04-10 10:08:00,
2013-04-10 04:13:00,39.6,34.5,29.83,NE,40,0.9,2.9,82,0.00,,,0.00,meteobridge,2013-04-10 10:13:00,
2013-04-10 04:18:00,39.6,34.9,29.83,North,9,0.9,2.9,83,0.00,,,0.00,meteobridge,2013-04-10 10:18:00,
2013-04-10 04:24:00,39.6,34.9,29.83,NE,47,0.0,2.0,83,0.00,,,0.00,meteobridge,2013-04-10 10:24:00,
2013-04-10 04:29:00,39.6,34.9,29.83,NNE,24,0.0,2.0,83,0.00,,,0.00,meteobridge,2013-04-10 10:29:00,
2013-04-10 04:34:00,39.6,34.9,29.83,NE,39,0.0,2.9,83,0.00,,,0.00,meteobridge,2013-04-10 10:34:00,
2013-04-10 04:39:00,39.4,34.9,29.83,North,5,0.0,0.9,84,0.00,,,0.00,meteobridge,2013-04-10 10:39:00,
2013-04-10 04:44:00,39.6,35.1,29.83,NNE,16,2.0,2.9,84,0.00,,,0.00,meteobridge,2013-04-10 10:44:00,
2013-04-10 04:49:00,39.6,35.1,29.83,NNE,20,0.9,0.9,84,0.00,,,0.00,meteobridge,2013-04-10 10:49:00,
2013-04-10 04:54:00,39.6,34.9,29.83,NNE,20,0.0,0.0,83,0.00,,,0.00,meteobridge,2013-04-10 10:54:00,
2013-04-10 04:59:00,39.6,35.1,29.84,NNE,20,0.0,0.9,84,0.00,,,0.00,meteobridge,2013-04-10 10:59:00,
2013-04-10 05:04:00,39.7,34.7,29.84,North,9,0.9,2.9,82,0.00,,,0.00,meteobridge,2013-04-10 11:04:00,
2013-04-10 05:09:00,39.7,34.2,29.85,NNW,335,0.9,2.9,80,0.00,,,0.00,meteobridge,2013-04-10 11:09:00,
2013-04-10 05:14:00,39.7,33.4,29.85,NNW,342,2.0,2.0,78,0.00,,,0.00,meteobridge,2013-04-10 11:14:00,
2013-04-10 05:20:00,39.7,32.7,29.85,NNW,348,0.0,4.9,76,0.00,,,0.00,meteobridge,2013-04-10 11:20:00,
2013-04-10 05:25:00,39.7,32.7,29.85,NW,311,2.0,4.0,76,0.00,,,0.00,meteobridge,2013-04-10 11:25:00,
2013-04-10 05:30:00,39.6,32.0,29.85,NW,319,4.0,4.9,74,0.00,,,0.00,meteobridge,2013-04-10 11:30:00,
2013-04-10 05:35:00,39.6,32.0,29.85,North,0,2.0,4.0,74,0.00,,,0.00,meteobridge,2013-04-10 11:35:00,
2013-04-10 05:40:00,39.6,32.0,29.85,NNW,334,2.0,6.0,74,0.00,,,0.00,meteobridge,2013-04-10 11:40:00,
2013-04-10 05:45:00,39.4,31.5,29.85,North,355,4.0,4.9,73,0.00,,,0.00,meteobridge,2013-04-10 11:45:00,
2013-04-10 05:50:00,39.4,31.1,29.85,NNW,328,0.9,4.0,72,0.00,,,0.00,meteobridge,2013-04-10 11:50:00,
2013-04-10 05:55:00,39.4,30.7,29.85,WNW,293,2.0,4.0,71,0.00,,,0.00,meteobridge,2013-04-10 11:55:00,
2013-04-10 06:00:00,39.4,30.0,29.85,NNW,342,4.0,4.9,69,0.00,,,0.00,meteobridge,2013-04-10 12:00:00,
2013-04-10 06:05:00,39.2,29.5,29.86,NW,325,4.0,6.9,68,0.00,,,0.00,meteobridge,2013-04-10 12:05:00,
2013-04-10 06:10:00,39.0,29.7,29.86,NNW,346,2.9,2.9,69,0.00,,,0.00,meteobridge,2013-04-10 12:10:00,
2013-04-10 06:15:00,39.0,30.0,29.87,NNW,329,2.0,6.9,70,0.00,,,0.00,meteobridge,2013-04-10 12:15:00,
2013-04-10 06:20:00,38.8,29.8,29.87,NNW,327,4.9,4.9,70,0.00,,,0.00,meteobridge,2013-04-10 12:20:00,
2013-04-10 06:25:00,38.7,28.9,29.87,NW,322,0.9,10.1,68,0.00,,,0.00,meteobridge,2013-04-10 12:25:00,
2013-04-10 06:30:00,38.7,28.6,29.87,North,355,8.1,8.1,67,0.00,,,0.00,meteobridge,2013-04-10 12:30:00,
2013-04-10 06:35:00,38.5,28.8,29.87,NNW,329,0.0,2.9,68,0.00,,,0.00,meteobridge,2013-04-10 12:35:00,
2013-04-10 06:41:00,38.5,28.4,29.88,NNW,341,0.9,4.9,67,0.00,,,0.00,meteobridge,2013-04-10 12:41:00,
2013-04-10 06:46:00,38.5,28.8,29.88,NNW,348,0.9,4.9,68,0.00,,,0.00,meteobridge,2013-04-10 12:46:00,
2013-04-10 06:51:00,38.5,28.4,29.88,NNW,342,2.9,4.0,67,0.00,,,0.00,meteobridge,2013-04-10 12:51:00,
2013-04-10 06:56:00,38.5,28.0,29.89,North,0,2.0,8.1,66,0.00,,,0.00,meteobridge,2013-04-10 12:56:00,
2013-04-10 07:01:00,38.3,27.9,29.89,NNW,330,2.9,6.9,66,0.00,,,0.00,meteobridge,2013-04-10 13:01:00,
2013-04-10 07:06:00,38.1,27.3,29.89,NW,312,2.9,8.1,65,0.00,,,0.00,meteobridge,2013-04-10 13:06:00,
2013-04-10 07:11:00,38.1,27.0,29.90,NW,319,0.9,6.0,64,0.00,,,0.00,meteobridge,2013-04-10 13:11:00,
2013-04-10 07:16:00,37.9,26.4,29.90,NW,309,2.0,6.9,63,0.00,,,0.00,meteobridge,2013-04-10 13:16:00,
2013-04-10 07:21:00,37.8,25.9,29.91,NW,323,2.9,6.0,62,0.00,,,0.00,meteobridge,2013-04-10 13:21:00,
2013-04-10 07:26:00,37.8,25.5,29.91,North,5,8.9,8.9,61,0.00,,,0.00,meteobridge,2013-04-10 13:26:00,
2013-04-10 07:31:00,37.8,25.9,29.91,NW,323,2.9,6.0,62,0.00,,,0.00,meteobridge,2013-04-10 13:31:00,
2013-04-10 07:37:00,37.6,25.7,29.92,NNW,331,6.0,13.0,62,0.00,,,0.00,meteobridge,2013-04-10 13:37:00,
2013-04-10 07:42:00,37.6,24.6,29.91,NNW,344,2.0,6.9,59,0.00,,,0.00,meteobridge,2013-04-10 13:42:00,
2013-04-10 07:47:00,37.4,23.9,29.92,NW,326,4.9,6.0,58,0.00,,,0.00,meteobridge,2013-04-10 13:47:00,
2013-04-10 07:52:00,37.4,23.9,29.92,NW,309,2.0,6.9,58,0.00,,,0.00,meteobridge,2013-04-10 13:52:00,
2013-04-10 07:57:00,37.6,24.1,29.92,NNW,330,2.0,6.9,58,0.00,,,0.00,meteobridge,2013-04-10 13:57:00,
2013-04-10 08:02:00,37.6,24.1,29.93,NNW,333,4.0,8.9,58,0.00,,,0.00,meteobridge,2013-04-10 14:02:00,
2013-04-10 08:07:00,37.6,23.7,29.93,North,355,6.9,11.0,57,0.00,,,0.00,meteobridge,2013-04-10 14:07:00,
2013-04-10 08:12:00,37.6,23.7,29.93,NNW,331,4.0,4.9,57,0.00,,,0.00,meteobridge,2013-04-10 14:12:00,
2013-04-10 08:17:00,37.8,23.9,29.93,NW,317,2.0,6.9,57,0.00,,,0.00,meteobridge,2013-04-10 14:17:00,
2013-04-10 08:22:00,37.9,24.1,29.93,NW,323,4.0,6.0,57,0.00,,,0.00,meteobridge,2013-04-10 14:22:00,
2013-04-10 08:27:00,37.9,24.1,29.93,NW,323,4.0,8.1,57,0.00,,,0.00,meteobridge,2013-04-10 14:27:00,
2013-04-10 08:32:00,38.5,23.7,29.93,NNW,335,0.9,10.1,55,0.00,,,0.00,meteobridge,2013-04-10 14:32:00,
2013-04-10 08:37:00,38.8,24.1,29.93,NNW,339,4.0,8.9,55,0.00,,,0.00,meteobridge,2013-04-10 14:37:00,
2013-04-10 08:42:00,39.4,23.2,29.93,North,5,6.0,10.1,52,0.00,,,0.00,meteobridge,2013-04-10 14:42:00,
2013-04-10 08:56:00,39.4,22.8,29.94,NW,326,4.9,4.9,51,0.00,,,0.00,meteobridge,2013-04-10 14:56:00,
2013-04-10 09:01:00,39.2,22.1,29.94,NNW,336,4.0,8.1,50,0.00,,,0.00,meteobridge,2013-04-10 15:01:00,
2013-04-10 09:06:00,39.6,23.0,29.94,North,5,6.0,8.1,51,0.00,,,0.00,meteobridge,2013-04-10 15:06:00,
2013-04-10 09:11:00,39.9,23.2,29.95,NE,41,0.0,4.9,51,0.00,,,0.00,meteobridge,2013-04-10 15:11:00,
2013-04-10 09:16:00,40.5,23.7,29.94,North,349,2.0,6.0,51,0.00,,,0.00,meteobridge,2013-04-10 15:16:00,
2013-04-10 09:21:00,41.2,23.5,29.95,North,9,2.9,8.9,49,0.00,,,0.00,meteobridge,2013-04-10 15:21:00,
2013-04-10 09:26:00,41.2,23.5,29.95,NNE,21,4.0,11.0,49,0.00,,,0.00,meteobridge,2013-04-10 15:26:00,
2013-04-10 09:31:00,41.4,23.7,29.95,NNW,339,4.9,6.0,49,0.00,,,0.00,meteobridge,2013-04-10 15:31:00,
2013-04-10 09:36:00,41.9,24.1,29.95,NNW,336,4.9,8.1,49,0.00,,,0.00,meteobridge,2013-04-10 15:36:00,
2013-04-10 09:41:00,41.4,22.1,29.94,North,5,6.0,8.9,46,0.00,,,0.00,meteobridge,2013-04-10 15:41:00,
2013-04-10 09:46:00,41.4,22.6,29.94,NNE,26,10.1,10.1,47,0.00,,,0.00,meteobridge,2013-04-10 15:46:00,
2013-04-10 09:51:00,41.4,22.6,29.94,North,350,6.0,8.1,47,0.00,,,0.00,meteobridge,2013-04-10 15:51:00,
2013-04-10 09:56:00,41.0,22.8,29.95,North,355,4.0,11.0,48,0.00,,,0.00,meteobridge,2013-04-10 15:56:00,
2013-04-10 10:01:00,41.2,23.5,29.94,NE,39,2.0,4.9,49,0.00,,,0.00,meteobridge,2013-04-10 16:01:00,
2013-04-10 10:06:00,41.4,23.7,29.95,North,355,2.9,6.9,49,0.00,,,0.00,meteobridge,2013-04-10 16:06:00,
2013-04-10 10:11:00,41.5,23.7,29.95,NNW,348,4.0,4.9,49,0.00,,,0.00,meteobridge,2013-04-10 16:11:00,
2013-04-10 10:16:00,42.1,23.7,29.95,NNW,337,2.9,4.9,48,0.00,,,0.00,meteobridge,2013-04-10 16:16:00,
2013-04-10 10:21:00,42.3,23.5,29.95,North,355,6.0,6.0,47,0.00,,,0.00,meteobridge,2013-04-10 16:21:00,
2013-04-10 10:26:00,41.9,23.7,29.95,WNW,293,0.9,4.0,48,0.00,,,0.00,meteobridge,2013-04-10 16:26:00,
2013-04-10 10:31:00,42.4,23.7,29.95,North,355,4.0,6.0,47,0.00,,,0.00,meteobridge,2013-04-10 16:31:00,
2013-04-10 10:36:00,42.6,23.4,29.95,NNW,343,0.9,2.0,46,0.00,,,0.00,meteobridge,2013-04-10 16:36:00,
2013-04-10 10:41:00,43.0,23.5,29.96,NNE,24,0.9,4.9,46,0.00,,,0.00,meteobridge,2013-04-10 16:41:00,
2013-04-10 10:46:00,43.2,23.2,29.95,NW,325,2.9,4.0,45,0.00,,,0.00,meteobridge,2013-04-10 16:46:00,
2013-04-10 10:51:00,42.6,23.4,29.96,NNE,26,0.0,4.9,46,0.00,,,0.00,meteobridge,2013-04-10 16:51:00,
2013-04-10 10:56:00,42.4,24.1,29.96,SSW,195,4.0,4.0,48,0.00,,,0.00,meteobridge,2013-04-10 16:56:00,
2013-04-10 11:01:00,41.7,24.4,29.96,SSW,205,2.9,2.9,50,0.00,,,0.00,meteobridge,2013-04-10 17:01:00,
2013-04-10 11:06:00,41.4,22.6,29.95,South,191,0.0,0.9,47,0.00,,,0.00,meteobridge,2013-04-10 17:06:00,
2013-04-10 11:11:00,41.7,23.9,29.95,ESE,102,0.9,4.0,49,0.00,,,0.00,meteobridge,2013-04-10 17:11:00,
2013-04-10 11:16:00,42.4,24.1,29.95,SE,124,0.9,4.0,48,0.00,,,0.00,meteobridge,2013-04-10 17:16:00,
2013-04-10 11:21:00,42.8,25.0,29.94,East,94,0.0,2.0,49,0.00,,,0.00,meteobridge,2013-04-10 17:21:00,
2013-04-10 11:26:00,43.5,25.2,29.94,ESE,111,0.9,2.9,48,0.00,,,0.00,meteobridge,2013-04-10 17:26:00,
2013-04-10 11:32:00,45.1,26.6,29.94,WNW,287,0.9,4.0,48,0.00,,,0.00,meteobridge,2013-04-10 17:32:00,
2013-04-10 11:37:00,45.9,25.7,29.94,WSW,248,2.0,4.0,45,0.00,,,0.00,meteobridge,2013-04-10 17:37:00,
2013-04-10 11:42:00,45.0,26.4,29.93,West,266,0.0,4.0,48,0.00,,,0.00,meteobridge,2013-04-10 17:42:00,
2013-04-10 11:47:00,46.9,26.8,29.93,SW,218,2.9,2.9,45,0.00,,,0.00,meteobridge,2013-04-10 17:47:00,
2013-04-10 11:52:00,46.9,27.3,29.93,NNW,333,0.9,2.9,46,0.00,,,0.00,meteobridge,2013-04-10 17:52:00,
2013-04-10 11:57:00,46.0,26.4,29.93,West,281,0.0,2.9,46,0.00,,,0.00,meteobridge,2013-04-10 17:57:00,
2013-04-10 12:02:00,46.0,26.4,29.93,ENE,60,0.9,2.0,46,0.00,,,0.00,meteobridge,2013-04-10 18:02:00,
2013-04-10 12:07:00,45.9,25.2,29.93,North,355,2.0,4.0,44,0.00,,,0.00,meteobridge,2013-04-10 18:07:00,
2013-04-10 12:12:00,46.9,26.2,29.92,ENE,65,2.0,4.9,44,0.00,,,0.00,meteobridge,2013-04-10 18:12:00,
2013-04-10 12:17:00,47.5,26.1,29.92,WSW,238,4.0,4.0,43,0.00,,,0.00,meteobridge,2013-04-10 18:17:00,
2013-04-10 12:22:00,47.8,27.0,29.92,West,269,2.9,2.9,44,0.00,,,0.00,meteobridge,2013-04-10 18:22:00,
2013-04-10 12:27:00,48.7,26.6,29.92,NNW,344,0.9,2.9,42,0.00,,,0.00,meteobridge,2013-04-10 18:27:00,
2013-04-10 12:32:00,48.9,25.7,29.92,NNW,344,4.0,8.1,40,0.00,,,0.00,meteobridge,2013-04-10 18:32:00,
2013-04-10 12:37:00,49.5,26.8,29.92,WSW,258,4.9,4.9,41,0.00,,,0.00,meteobridge,2013-04-10 18:37:00,
2013-04-10 12:42:00,48.6,27.1,29.91,NNW,347,2.0,6.9,43,0.00,,,0.00,meteobridge,2013-04-10 18:42:00,
2013-04-10 12:47:00,48.9,26.2,29.91,WNW,298,2.9,2.9,41,0.00,,,0.00,meteobridge,2013-04-10 18:47:00,
2013-04-10 12:52:00,48.9,25.7,29.91,NE,40,0.9,2.0,40,0.00,,,0.00,meteobridge,2013-04-10 18:52:00,
2013-04-10 12:57:00,48.4,25.7,29.90,NW,313,2.9,4.0,41,0.00,,,0.00,meteobridge,2013-04-10 18:57:00,
2013-04-10 13:02:00,49.3,26.1,29.90,NNW,340,0.9,4.9,40,0.00,,,0.00,meteobridge,2013-04-10 19:02:00,
2013-04-10 13:07:00,48.9,25.0,29.90,WSW,243,0.9,2.0,39,0.00,,,0.00,meteobridge,2013-04-10 19:07:00,
2013-04-10 13:12:00,48.7,26.1,29.90,NW,323,2.0,2.0,41,0.00,,,0.00,meteobridge,2013-04-10 19:12:00,
2013-04-10 13:18:00,48.7,26.1,29.89,WSW,241,0.9,4.0,41,0.00,,,0.00,meteobridge,2013-04-10 19:18:00,
2013-04-10 13:23:00,48.7,25.5,29.90,NNW,345,4.0,4.0,40,0.00,,,0.00,meteobridge,2013-04-10 19:23:00,
2013-04-10 13:28:00,48.0,26.1,29.90,NNW,346,0.9,0.9,42,0.00,,,0.00,meteobridge,2013-04-10 19:28:00,
2013-04-10 13:33:00,48.0,25.5,29.90,WSW,253,2.0,2.9,41,0.00,,,0.00,meteobridge,2013-04-10 19:33:00,
2013-04-10 13:38:00,47.5,25.0,29.90,WSW,257,2.0,2.9,41,0.00,,,0.00,meteobridge,2013-04-10 19:38:00,
2013-04-10 13:43:00,46.8,25.5,29.90,NNE,15,0.9,4.0,43,0.00,,,0.00,meteobridge,2013-04-10 19:43:00,
2013-04-10 13:48:00,46.6,26.4,29.90,North,351,2.9,6.0,45,0.00,,,0.00,meteobridge,2013-04-10 19:48:00,
2013-04-10 13:53:00,46.8,26.6,29.90,NW,321,2.0,6.0,45,0.00,,,0.00,meteobridge,2013-04-10 19:53:00,
2013-04-10 13:58:00,46.0,26.4,29.90,NW,309,2.9,4.0,46,0.00,,,0.00,meteobridge,2013-04-10 19:58:00,
2013-04-10 14:03:00,45.9,26.8,29.90,West,278,0.0,4.0,47,0.00,,,0.00,meteobridge,2013-04-10 20:03:00,
2013-04-10 14:08:00,46.0,26.4,29.90,NNW,338,0.0,4.0,46,0.00,,,0.00,meteobridge,2013-04-10 20:08:00,
2013-04-10 14:13:00,45.7,27.1,29.90,NW,306,2.0,4.9,48,0.00,,,0.00,meteobridge,2013-04-10 20:13:00,
2013-04-10 14:18:00,45.5,27.5,29.91,West,281,0.9,4.9,49,0.00,,,0.00,meteobridge,2013-04-10 20:18:00,
2013-04-10 14:23:00,45.1,27.7,29.91,NNW,330,2.9,4.0,50,0.00,,,0.00,meteobridge,2013-04-10 20:23:00,
2013-04-10 14:28:00,45.3,28.2,29.91,NW,311,2.9,6.9,51,0.00,,,0.00,meteobridge,2013-04-10 20:28:00,
2013-04-10 14:33:00,45.9,29.3,29.91,NNW,333,2.9,4.9,52,0.00,,,0.00,meteobridge,2013-04-10 20:33:00,
2013-04-10 14:39:00,45.9,30.2,29.91,NNW,346,6.0,8.1,54,0.00,,,0.00,meteobridge,2013-04-10 20:39:00,
2013-04-10 14:44:00,45.9,30.2,29.91,WNW,300,0.0,2.9,54,0.00,,,0.00,meteobridge,2013-04-10 20:44:00,
2013-04-10 14:49:00,45.9,30.6,29.90,NE,49,2.0,4.0,55,0.00,,,0.00,meteobridge,2013-04-10 20:49:00,
2013-04-10 14:54:00,46.6,30.7,29.90,NNW,342,0.9,4.9,54,0.00,,,0.00,meteobridge,2013-04-10 20:54:00,
2013-04-10 14:59:00,47.3,30.6,29.90,NW,325,0.9,2.9,52,0.00,,,0.00,meteobridge,2013-04-10 20:59:00,
2013-04-10 15:04:00,46.6,30.4,29.90,NNW,346,0.9,6.0,53,0.00,,,0.00,meteobridge,2013-04-10 21:04:00,
2013-04-10 15:09:00,46.2,30.9,29.89,North,0,6.0,8.1,55,0.00,,,0.00,meteobridge,2013-04-10 21:09:00,
2013-04-10 15:14:00,46.9,30.7,29.90,North,355,2.9,6.0,53,0.00,,,0.00,meteobridge,2013-04-10 21:14:00,
2013-04-10 15:19:00,47.5,31.3,29.89,NNE,19,4.9,8.1,53,0.00,,,0.00,meteobridge,2013-04-10 21:19:00,
2013-04-10 15:24:00,48.7,30.9,29.89,NNW,334,2.0,4.0,50,0.00,,,0.00,meteobridge,2013-04-10 21:24:00,
2013-04-10 15:29:00,47.7,31.3,29.89,NNW,333,0.0,2.0,53,0.00,,,0.00,meteobridge,2013-04-10 21:29:00,
2013-04-10 15:34:00,48.0,29.8,29.88,WNW,299,2.0,4.9,49,0.00,,,0.00,meteobridge,2013-04-10 21:34:00,
2013-04-10 15:39:00,47.3,28.6,29.88,NW,304,2.9,8.1,48,0.00,,,0.00,meteobridge,2013-04-10 21:39:00,
2013-04-10 15:44:00,47.3,28.6,29.88,NNW,327,4.0,6.0,48,0.00,,,0.00,meteobridge,2013-04-10 21:44:00,
2013-04-10 15:49:00,47.7,29.5,29.88,North,0,2.0,6.0,49,0.00,,,0.00,meteobridge,2013-04-10 21:49:00,
2013-04-10 15:54:00,47.1,27.3,29.88,NW,324,4.0,8.1,46,0.00,,,0.00,meteobridge,2013-04-10 21:54:00,
2013-04-10 15:59:00,46.8,27.1,29.88,NW,313,2.0,6.9,46,0.00,,,0.00,meteobridge,2013-04-10 21:59:00,
2013-04-10 16:04:00,46.2,26.6,29.88,WNW,288,4.0,6.0,46,0.00,,,0.00,meteobridge,2013-04-10 22:04:00,
2013-04-10 16:09:00,46.0,26.4,29.88,NNW,332,6.9,13.0,46,0.00,,,0.00,meteobridge,2013-04-10 22:09:00,
2013-04-10 16:14:00,46.6,26.4,29.88,WNW,303,6.0,8.9,45,0.00,,,0.00,meteobridge,2013-04-10 22:14:00,
2013-04-10 16:19:00,46.0,25.9,29.88,NNW,338,6.0,11.0,45,0.00,,,0.00,meteobridge,2013-04-10 22:19:00,
2013-04-10 16:24:00,45.9,25.2,29.88,WNW,283,2.9,8.1,44,0.00,,,0.00,meteobridge,2013-04-10 22:24:00,
2013-04-10 16:29:00,45.7,25.5,29.89,NNW,342,6.0,6.9,45,0.00,,,0.00,meteobridge,2013-04-10 22:29:00,
2013-04-10 16:34:00,45.9,25.2,29.89,West,275,4.0,13.0,44,0.00,,,0.00,meteobridge,2013-04-10 22:34:00,
2013-04-10 16:39:00,45.7,25.5,29.89,WNW,300,4.0,8.1,45,0.00,,,0.00,meteobridge,2013-04-10 22:39:00,
2013-04-10 16:44:00,45.7,24.4,29.88,North,5,4.9,10.1,43,0.00,,,0.00,meteobridge,2013-04-10 22:44:00,
2013-04-10 16:49:00,46.8,25.5,29.89,North,355,11.0,11.0,43,0.00,,,0.00,meteobridge,2013-04-10 22:49:00,
2013-04-10 16:54:00,46.4,24.6,29.89,WNW,283,0.9,8.1,42,0.00,,,0.00,meteobridge,2013-04-10 22:54:00,
2013-04-10 16:59:00,46.0,24.8,29.89,NNW,331,8.1,8.9,43,0.00,,,0.00,meteobridge,2013-04-10 22:59:00,
2013-04-10 17:04:00,46.0,23.7,29.89,WNW,297,2.9,6.0,41,0.00,,,0.00,meteobridge,2013-04-10 23:04:00,
2013-04-10 17:10:00,46.8,24.3,29.89,WNW,294,4.9,13.0,41,0.00,,,0.00,meteobridge,2013-04-10 23:10:00,
2013-04-10 17:14:00,47.7,24.4,29.89,NW,317,8.9,11.0,40,0.00,,,0.00,meteobridge,2013-04-10 23:14:00,
2013-04-10 17:20:00,47.1,24.1,29.89,NNW,338,11.0,12.1,40,0.00,,,0.00,meteobridge,2013-04-10 23:20:00,
2013-04-10 17:25:00,47.7,24.4,29.89,NNW,346,4.9,10.1,40,0.00,,,0.00,meteobridge,2013-04-10 23:25:00,
2013-04-10 17:30:00,47.5,23.2,29.89,WNW,295,4.0,12.1,38,0.00,,,0.00,meteobridge,2013-04-10 23:30:00,
2013-04-10 17:35:00,46.8,22.5,29.89,NNW,343,4.0,11.0,38,0.00,,,0.00,meteobridge,2013-04-10 23:35:00,
2013-04-10 17:40:00,46.9,22.1,29.89,NW,319,2.0,8.9,37,0.00,,,0.00,meteobridge,2013-04-10 23:40:00,
2013-04-10 17:45:00,47.1,22.1,29.89,NW,326,2.9,6.0,37,0.00,,,0.00,meteobridge,2013-04-10 23:45:00,
2013-04-10 17:50:00,47.5,21.9,29.89,WNW,300,2.0,8.9,36,0.00,,,0.00,meteobridge,2013-04-10 23:50:00,
2013-04-10 17:55:00,46.9,21.4,29.89,NNW,348,6.0,15.0,36,0.00,,,0.00,meteobridge,2013-04-10 23:55:00,
2013-04-10 18:00:00,46.6,21.7,29.89,NW,323,8.9,13.0,37,0.00,,,0.00,meteobridge,2013-04-11 00:00:00,
2013-04-10 18:05:00,45.9,21.0,29.90,NW,315,0.9,8.1,37,0.00,,,0.00,meteobridge,2013-04-11 00:05:00,
2013-04-10 18:10:00,45.7,21.6,29.90,NW,320,4.0,6.0,38,0.00,,,0.00,meteobridge,2013-04-11 00:10:00,
2013-04-10 18:15:00,45.5,20.7,29.90,NW,320,2.9,10.1,37,0.00,,,0.00,meteobridge,2013-04-11 00:15:00,
2013-04-10 18:20:00,45.3,20.7,29.90,WNW,302,4.0,11.0,37,0.00,,,0.00,meteobridge,2013-04-11 00:20:00,
2013-04-10 18:25:00,45.3,21.2,29.90,WNW,302,2.0,12.1,38,0.00,,,0.00,meteobridge,2013-04-11 00:25:00,
2013-04-10 18:30:00,45.1,21.0,29.90,NNE,27,4.9,8.9,38,0.00,,,0.00,meteobridge,2013-04-11 00:30:00,
2013-04-10 18:35:00,45.1,21.0,29.91,NNW,346,8.1,8.9,38,0.00,,,0.00,meteobridge,2013-04-11 00:35:00,
2013-04-10 18:40:00,45.1,20.5,29.91,North,5,8.1,14.1,37,0.00,,,0.00,meteobridge,2013-04-11 00:40:00,
2013-04-10 18:45:00,45.0,20.3,29.91,West,279,2.9,11.0,37,0.00,,,0.00,meteobridge,2013-04-11 00:45:00,
2013-04-10 18:50:00,45.0,20.8,29.91,NW,310,2.9,8.1,38,0.00,,,0.00,meteobridge,2013-04-11 00:50:00,
2013-04-10 18:55:00,45.0,20.8,29.91,WNW,300,4.0,10.1,38,0.00,,,0.00,meteobridge,2013-04-11 00:55:00,
2013-04-10 19:00:00,44.8,20.1,29.91,WNW,290,4.9,6.9,37,0.00,,,0.00,meteobridge,2013-04-11 01:00:00,
2013-04-10 19:05:00,44.8,20.1,29.91,NNW,345,4.0,6.0,37,0.00,,,0.00,meteobridge,2013-04-11 01:05:00,
2013-04-10 19:10:00,45.0,20.3,29.91,NNW,340,2.0,8.1,37,0.00,,,0.00,meteobridge,2013-04-11 01:10:00,
2013-04-10 19:15:00,45.0,20.3,29.91,NW,311,2.0,8.9,37,0.00,,,0.00,meteobridge,2013-04-11 01:15:00,
2013-04-10 19:20:00,44.8,20.7,29.91,WNW,286,4.0,6.0,38,0.00,,,0.00,meteobridge,2013-04-11 01:20:00,
2013-04-10 19:25:00,44.8,20.1,29.91,North,355,6.0,6.0,37,0.00,,,0.00,meteobridge,2013-04-11 01:25:00,
2013-04-10 19:31:00,44.4,20.5,29.92,WNW,290,4.9,6.0,38,0.00,,,0.00,meteobridge,2013-04-11 01:31:00,
2013-04-10 19:36:00,44.2,20.3,29.92,NNW,337,6.0,11.0,38,0.00,,,0.00,meteobridge,2013-04-11 01:36:00,
2013-04-10 19:41:00,44.1,20.1,29.92,NNW,329,4.0,4.9,38,0.00,,,0.00,meteobridge,2013-04-11 01:41:00,
2013-04-10 19:46:00,44.1,20.7,29.92,NW,314,4.9,10.1,39,0.00,,,0.00,meteobridge,2013-04-11 01:46:00,
2013-04-10 19:51:00,43.9,20.5,29.92,NW,317,2.0,4.9,39,0.00,,,0.00,meteobridge,2013-04-11 01:51:00,
2013-04-10 19:56:00,43.7,20.3,29.93,NNW,330,2.0,4.9,39,0.00,,,0.00,meteobridge,2013-04-11 01:56:00,
2013-04-10 20:01:00,43.5,20.1,29.93,NW,312,2.0,4.9,39,0.00,,,0.00,meteobridge,2013-04-11 02:01:00,
2013-04-10 20:06:00,43.3,20.1,29.93,WNW,299,0.0,2.9,39,0.00,,,0.00,meteobridge,2013-04-11 02:06:00,
2013-04-10 20:11:00,43.3,20.7,29.93,SW,236,0.9,0.9,40,0.00,,,0.00,meteobridge,2013-04-11 02:11:00,
2013-04-10 20:16:00,43.0,20.8,29.93,NW,317,2.0,2.9,41,0.00,,,0.00,meteobridge,2013-04-11 02:16:00,
2013-04-10 20:22:00,42.8,20.7,29.93,WNW,284,0.0,0.9,41,0.00,,,0.00,meteobridge,2013-04-11 02:22:00,
2013-04-10 20:27:00,42.3,20.3,29.93,WNW,299,0.0,2.0,41,0.00,,,0.00,meteobridge,2013-04-11 02:27:00,
2013-04-10 20:32:00,42.1,20.7,29.93,WNW,289,0.0,0.0,42,0.00,,,0.00,meteobridge,2013-04-11 02:32:00,
2013-04-10 20:37:00,41.9,20.5,29.93,WNW,289,0.0,0.9,42,0.00,,,0.00,meteobridge,2013-04-11 02:37:00,
2013-04-10 20:42:00,41.7,20.3,29.93,West,269,2.0,2.9,42,0.00,,,0.00,meteobridge,2013-04-11 02:42:00,
2013-04-10 20:47:00,41.5,20.1,29.93,WNW,293,0.0,2.0,42,0.00,,,0.00,meteobridge,2013-04-11 02:47:00,
2013-04-10 20:52:00,41.5,20.1,29.93,WNW,293,0.0,0.0,42,0.00,,,0.00,meteobridge,2013-04-11 02:52:00,
2013-04-10 20:58:00,41.5,20.7,29.93,WNW,294,0.0,2.0,43,0.00,,,0.00,meteobridge,2013-04-11 02:58:00,
2013-04-10 21:03:00,41.2,20.3,29.94,West,271,0.0,0.9,43,0.00,,,0.00,meteobridge,2013-04-11 03:03:00,
2013-04-10 21:08:00,41.2,20.3,29.94,WNW,285,0.0,0.0,43,0.00,,,0.00,meteobridge,2013-04-11 03:08:00,
2013-04-10 21:13:00,41.4,20.5,29.94,WNW,285,0.0,0.9,43,0.00,,,0.00,meteobridge,2013-04-11 03:13:00,
2013-04-10 21:18:00,41.4,20.5,29.95,WNW,285,0.0,2.0,43,0.00,,,0.00,meteobridge,2013-04-11 03:18:00,
2013-04-10 21:23:00,40.8,20.7,29.95,West,276,0.0,0.9,44,0.00,,,0.00,meteobridge,2013-04-11 03:23:00,
2013-04-10 21:28:00,40.8,20.7,29.95,SW,218,2.0,2.0,44,0.00,,,0.00,meteobridge,2013-04-11 03:28:00,
2013-04-10 21:33:00,40.8,20.7,29.95,South,187,0.0,2.9,44,0.00,,,0.00,meteobridge,2013-04-11 03:33:00,
2013-04-10 21:39:00,41.0,20.8,29.96,SSW,209,0.0,2.9,44,0.00,,,0.00,meteobridge,2013-04-11 03:39:00,
2013-04-10 21:44:00,40.8,20.7,29.96,SSW,209,0.0,0.9,44,0.00,,,0.00,meteobridge,2013-04-11 03:44:00,
2013-04-10 21:49:00,40.5,20.8,29.96,SSW,209,0.0,0.0,45,0.00,,,0.00,meteobridge,2013-04-11 03:49:00,
2013-04-10 21:54:00,40.5,20.8,29.96,SSW,204,0.0,0.0,45,0.00,,,0.00,meteobridge,2013-04-11 03:54:00,
2013-04-10 21:59:00,39.9,20.8,29.96,SSW,203,0.9,0.9,46,0.00,,,0.00,meteobridge,2013-04-11 03:59:00,
2013-04-10 22:00:00,39.9,20.8,29.96,SSW,203,0.0,2.0,46,0.00,,,0.00,meteobridge,2013-04-11 04:00:00,
2013-04-10 22:02:00,39.9,20.8,29.96,SSW,192,0.0,0.9,46,0.00,,,0.00,meteobridge,2013-04-11 04:02:00,
2013-04-10 22:07:00,39.9,20.8,29.96,SW,226,0.9,2.9,46,0.00,,,0.00,meteobridge,2013-04-11 04:07:00,
2013-04-10 22:12:00,40.1,20.5,29.96,SW,226,0.0,2.0,45,0.00,,,0.00,meteobridge,2013-04-11 04:12:00,
2013-04-10 22:18:00,40.3,20.7,29.96,SSW,192,0.0,0.9,45,0.00,,,0.00,meteobridge,2013-04-11 04:18:00,
2013-04-10 22:23:00,39.7,20.7,29.96,SSW,192,0.0,0.0,46,0.00,,,0.00,meteobridge,2013-04-11 04:23:00,
2013-04-10 22:28:00,39.7,20.7,29.97,South,179,2.0,2.9,46,0.00,,,0.00,meteobridge,2013-04-11 04:28:00,
2013-04-10 22:33:00,39.4,20.8,29.96,SW,231,0.0,2.9,47,0.00,,,0.00,meteobridge,2013-04-11 04:33:00,
2013-04-10 22:38:00,39.4,20.8,29.96,SW,230,0.0,0.0,47,0.00,,,0.00,meteobridge,2013-04-11 04:38:00,
2013-04-10 22:43:00,39.0,20.5,29.97,SSE,165,2.9,2.9,47,0.00,,,0.00,meteobridge,2013-04-11 04:43:00,
2013-04-10 22:48:00,39.0,20.5,29.96,SSE,165,0.0,0.0,47,0.00,,,0.00,meteobridge,2013-04-11 04:48:00,
2013-04-10 22:53:00,38.8,20.8,29.97,SSE,165,0.0,0.9,48,0.00,,,0.00,meteobridge,2013-04-11 04:53:00,
2013-04-10 22:58:00,38.7,20.7,29.97,SSE,165,0.0,0.0,48,0.00,,,0.00,meteobridge,2013-04-11 04:58:00,
2013-04-10 23:03:00,38.5,20.5,29.97,SSE,165,0.0,0.0,48,0.00,,,0.00,meteobridge,2013-04-11 05:03:00,
2013-04-10 23:08:00,38.3,20.8,29.97,SSE,165,0.0,0.0,49,0.00,,,0.00,meteobridge,2013-04-11 05:08:00,
2013-04-10 23:13:00,37.9,21.0,29.96,SSE,165,0.0,0.0,50,0.00,,,0.00,meteobridge,2013-04-11 05:13:00,
2013-04-10 23:19:00,37.6,21.0,29.96,SSE,165,0.0,0.0,51,0.00,,,0.00,meteobridge,2013-04-11 05:19:00,
2013-04-10 23:24:00,37.0,21.0,29.96,SSE,165,0.0,0.0,52,0.00,,,0.00,meteobridge,2013-04-11 05:24:00,
2013-04-10 23:29:00,36.7,21.6,29.96,SSE,165,0.0,0.0,54,0.00,,,0.00,meteobridge,2013-04-11 05:29:00,
2013-04-10 23:34:00,36.1,21.6,29.96,SSE,165,0.0,0.0,55,0.00,,,0.00,meteobridge,2013-04-11 05:34:00,
2013-04-10 23:39:00,36.1,21.6,29.96,SSE,165,0.0,0.9,55,0.00,,,0.00,meteobridge,2013-04-11 05:39:00,
2013-04-10 23:44:00,36.7,21.2,29.96,SSE,165,0.0,2.0,53,0.00,,,0.00,meteobridge,2013-04-11 05:44:00,
2013-04-10 23:50:00,36.9,21.4,29.96,SSE,165,0.0,0.0,53,0.00,,,0.00,meteobridge,2013-04-11 05:50:00,
2013-04-10 23:55:00,36.9,21.4,29.96,SSE,165,0.0,0.0,53,0.00,,,0.00,meteobridge,2013-04-11 05:55:00,